Location: Kenockee Observatory
(43.0173°N, 82.7297°W)
Time: 15:46:42
(UTC-04:00)

Daily predictions for brighter satellites

Satellite Brightness Start Highest point End
(mag) Time Altitude Azimuth Time Altitude Azimuth Time Altitude Azimuth
NOSS 3-1 (A) 4.0 20:39:54 10° SW 20:45:39 65° NW 20:52:12 10° NNE
BREEZE-M DEB (TANK) 3.1 20:43:02 10° WNW 20:45:51 73° SSW 20:56:04 10° SE
NOSS 2-3 (E) 4.4 20:45:01 10° S 20:49:16 36° ESE 20:54:06 10° NE
Cosmos 2227 4.4 20:45:34 10° NNW 20:51:14 80° WSW 20:56:54 10° SSE
Helios 1B rocket 4.2 20:51:58 10° ENE 20:54:08 14° E 20:56:17 10° ESE
ALOS 4.2 20:50:01 10° SSW 20:54:14 33° W 20:58:29 10° NNW
Cosmos 839 Rocket 4.0 20:48:07 10° SSW 20:54:22 82° ESE 21:00:41 10° NE
Resurs 1-3 3.6 20:52:25 10° SSE 20:56:46 67° ENE 21:01:09 10° N
USA 186 2.0 20:53:35 10° SSE 20:56:53 55° ENE 21:00:12 10° N
Lacrosse 5 2.6 20:52:56 10° S 20:57:24 32° SE 21:01:54 10° ENE
Cosmos 1452 Rocket 3.6 20:52:43 10° SSW 20:58:01 87° WNW 21:03:20 10° NNE
Cosmos 1850 Rocket 4.3 20:53:43 10° NNW 20:58:57 53° ENE 21:04:07 10° SE
Cosmos 1420 Rocket 4.0 20:54:10 10° S 20:59:17 68° ESE 21:04:27 10° NNE
Meteor 2-11 Rocket 4.5 20:56:01 10° N 21:02:09 88° E 21:08:13 10° S
Atlas Centaur 2 4.0 20:55:03 10° WSW 21:02:13 31° S 21:08:39 10° SE
Cosmos 921 Rocket 4.5 21:00:15 10° SW 21:04:13 41° WNW 21:08:12 10° N
SL-8 R/B 4.5 21:00:28 10° WNW 21:05:06 47° N 21:09:44 10° E
SeaSat 1 2.8 21:03:31 10° NE 21:08:11 40° ESE 21:12:47 10° S
Cosmos 1602 3.7 21:07:44 10° S 21:11:35 86° W 21:15:26 10° N
Cosmos 1607 4.3 21:05:55 10° NNW 21:12:18 59° NE 21:18:19 12° SE
Cosmos 1633 4.0 21:11:09 10° SSW 21:14:35 41° WNW 21:18:04 10° N
Okean 1 Rocket 3.7 21:13:49 10° SSE 21:17:45 34° E 21:21:43 10° NNE
Cosmos 2263 Rocket 2.3 21:12:44 10° NNW 21:18:25 66° ENE 21:23:58 11° SE
Cosmos 1300 Rocket 3.6 21:14:27 10° S 21:18:37 52° E 21:22:49 10° NNE
Cosmos 1025 Rocket 4.0 21:16:54 10° NNE 21:20:34 27° ENE 21:23:14 15° SE
NOSS 2-3 (C) 3.8 21:18:09 10° SSW 21:22:48 70° ESE 21:28:13 10° NE
Cosmos 2322 Rocket 2.2 21:17:23 10° SSW 21:23:05 85° ESE 21:28:49 10° NNE
Cosmos 1140 Rocket 4.3 21:19:35 10° NNW 21:24:40 52° WSW 21:29:44 10° S
Meteor 1-11 Rocket 3.7 21:18:57 10° S 21:24:47 82° E 21:30:31 10° NNE
Cosmos 1844 Rocket 4.3 21:20:49 10° N 21:24:57 20° NE 21:28:30 12° E
YAOGAN 6 3.0 21:22:14 14° SE 21:25:03 42° ENE 21:28:24 10° N
Tiangong 1 1.2 21:22:34 10° W 21:25:16 48° SSW 21:26:47 21° SE
S3M 4.1 21:19:22 10° N 21:25:40 83° W 21:32:00 10° S
SJ-11-01 4.3 21:21:33 10° SSE 21:26:09 65° ENE 21:30:47 10° N
Cosmos 1553 Rocket 4.2 21:20:42 10° N 21:26:50 74° W 21:32:53 10° S
Okean 1-7 Rocket 4.4 21:26:06 10° N 21:30:13 34° ENE 21:32:58 18° SE
Spot 2 Rocket 4.0 21:26:27 10° S 21:31:28 61° WSW 21:36:32 10° NNW
Cosmos 2266 Rocket 3.9 21:25:49 10° S 21:31:46 64° E 21:37:45 10° NNE
Resurs 01 Rocket 2.7 21:28:32 10° S 21:32:49 46° W 21:37:07 10° NNW
Abrixas rocket 3.7 21:31:38 10° WNW 21:34:37 31° N 21:37:17 12° ENE
USA 238 DEB 4.3 21:27:58 10° NNW 21:34:47 46° NE 21:39:58 18° ESE
USA 238 4.3 21:28:04 10° NNW 21:34:52 46° NE 21:40:03 18° ESE
SL-16 R/B 2.4 21:29:37 10° SSW 21:35:16 78° WNW 21:41:00 10° NNE
CZ-4B DEB 4.4 21:32:26 11° SSE 21:35:46 85° ENE 21:39:19 10° N
Cosmos 2315 Rocket 4.2 21:32:18 10° N 21:38:23 51° ENE 21:43:24 15° SSE
Cosmos 1975 4.5 21:40:38 17° E 21:40:38 17° E 21:43:00 10° NE
Cosmos 2219 Rocket 4.1 21:42:46 11° E 21:42:46 11° E 21:43:34 10° ENE
Meteor 1-23 Rocket 4.1 21:36:14 10° N 21:41:49 74° E 21:47:03 12° SSE
EXPRESS MD2 3.8 21:39:14 10° W 21:41:53 50° NNW 21:46:35 10° ENE
Helios 1A 3.0 21:41:24 17° SSE 21:44:37 69° ENE 21:48:52 10° N
Cosmos 2322 4.0 21:41:22 10° S 21:46:41 44° ESE 21:52:02 10° NE
ERS-1 Rocket 3.3 21:46:40 22° SE 21:49:37 47° ENE 21:54:25 10° N
ATLAS 3B R/B 2.8 21:43:05 10° NNW 21:49:47 60° NE 21:53:56 23° ESE
Cosmos 1500 4.0 21:52:07 29° ESE 21:52:36 30° E 21:56:02 10° NNE
Meteor 1-29 3.2 21:49:45 10° NNE 21:53:03 44° E 21:54:01 34° SE
Cosmos 2360 Rocket 2.1 21:50:11 10° S 21:55:44 64° ESE 22:01:19 10° NNE
COSMOS 2428 3.5 21:55:48 24° SE 21:57:42 30° ESE 22:02:36 10° NE
Cosmos 1939 Rocket 3.6 21:54:02 10° S 21:57:53 49° W 22:01:43 10° NNW
Cosmos 1536 3.7 21:55:16 10° SSW 21:59:14 52° W 22:03:14 10° N
Envisat 4.2 21:56:04 10° SSW 22:00:50 41° W 22:05:40 10° NNW
NOSS 2-3 (D) 4.5 21:58:03 10° SW 22:02:43 60° NW 22:08:14 10° NNE
Meteor 1-5 Rocket 4.3 22:03:53 10° SSW 22:09:11 71° WNW 22:14:30 10° N
Cosmos 1892 Rocket 4.1 22:05:25 10° N 22:09:37 41° ENE 22:10:26 37° ESE
H-2A R/B 2.8 22:08:23 29° E 22:09:47 35° ENE 22:14:16 10° N
Cosmos 2333 Rocket 3.9 22:13:04 16° ENE 22:13:04 16° ENE 22:14:51 10° ENE
Cosmos 1238 Rocket 4.2 22:06:05 10° N 22:12:43 56° ENE 22:15:42 31° SE
SAR-Lupe-4 3.4 22:12:33 51° SSE 22:13:23 81° ENE 22:17:00 10° N
NOAA 11 4.1 22:12:03 24° SSE 22:15:27 89° ENE 22:21:00 10° NNW
CZ-4B DEB 2.8 22:15:44 56° SW 22:16:01 60° W 22:18:52 10° NNW
Cosmos 1302 Rocket 4.1 22:19:34 29° S 22:22:02 55° ESE 22:27:12 10° NNE
Cosmos 1544 Rocket 3.9 22:24:22 45° E 22:24:27 46° E 22:28:43 10° NNE
Cosmos 1486 Rocket 4.1 22:19:30 10° NNW 22:24:43 61° ENE 22:26:11 44° SE
MetOp-A 4.1 22:24:44 33° SSE 22:27:13 89° WSW 22:32:37 10° NNW
Aureole 3 Rocket 4.3 22:18:49 10° N 22:27:18 70° ENE 22:30:15 35° SSE
Cosmos 2237 Rocket 4.2 22:30:37 12° ENE 22:30:37 12° ENE 22:31:15 10° ENE
Cosmos 405 3.2 22:28:31 57° NE 22:28:31 57° NE 22:31:35 10° NNE
ATLAS 2AS CENTAUR R/B 3.4 22:21:33 10° SW 22:29:16 68° NW 22:37:26 10° NNE
Helios 1B rocket 3.3 22:25:44 10° N 22:29:43 49° WNW 22:33:40 10° SSW
SAR-Lupe-1 4.1 22:29:54 66° SSW 22:30:15 74° WSW 22:33:51 10° NNW
Cosmos 1110 Rocket 4.4 22:25:43 10° SSW 22:30:49 63° WNW 22:35:59 10° NNE
BREEZE M DEB (TANK) 2.4 22:27:06 10° SW 22:33:38 60° S 22:33:38 60° S
SPOT 5 2.8 22:33:36 53° SE 22:34:35 69° ENE 22:39:12 10° N
Cosmos 1241 Rocket 4.5 22:28:32 10° SSW 22:34:59 62° ESE 22:41:23 10° NE
Cosmos 1455 Rocket 3.2 22:37:04 54° E 22:37:04 54° E 22:41:12 10° NNE
CENTAUR R/B 4.3 22:31:58 10° NNW 22:38:29 29° NE 22:43:20 17° E
Cosmos 1066 Rocket 4.0 22:34:18 10° N 22:39:45 79° E 22:41:15 50° SSE
NOSS 3-4 (A) 4.2 22:41:26 33° E 22:41:26 33° E 22:45:49 10° NE
NOSS 3-4 (C) 4.3 22:41:38 32° E 22:41:38 32° E 22:45:55 10° NE
Lacrosse 5 2.7 22:35:17 10° WSW 22:40:13 50° NW 22:45:10 10° NE
SeaSat 1 4.4 22:41:16 10° N 22:45:33 30° NW 22:49:49 10° WSW
SL-8 R/B 3.5 22:43:06 10° WNW 22:47:55 79° SSW 22:48:14 74° SSE
SL-08 RB Rocket 3.6 22:49:38 68° S 22:50:11 81° WSW 22:54:45 10° NNW
Atlas Centaur 2 4.2 22:45:28 10° WSW 22:50:42 19° SSW 22:51:30 19° SSW
ARGOS 3.3 22:49:54 42° S 22:51:40 67° WSW 22:57:01 10° NNW
Nadezhda 1 Rocket 4.1 22:45:34 10° N 22:51:50 62° E 22:53:09 51° SE
Cosmos 1743 4.0 22:56:16 33° NNE 22:56:16 33° NNE 22:58:32 10° NNE
Landsat 7 3.9 23:01:05 65° ENE 23:01:05 65° ENE 23:05:39 10° N
Meteor 1-21 4.3 22:55:22 10° N 23:00:55 57° ENE 23:01:12 56° E
Cosmos 2263 Rocket 4.4 22:57:59 10° WNW 23:01:45 18° W 23:05:29 10° SW
Cosmos 1354 Rocket 4.0 22:57:09 10° NNW 23:02:29 69° ENE 23:02:44 68° E
DMSP B5D2-2 4.1 22:57:56 10° NNE 23:02:48 60° E 23:02:48 60° E
Cosmos 2278 Rocket 2.7 23:00:53 10° NNW 23:06:19 44° ENE 23:06:39 43° ENE
Cosmos 1844 Rocket 2.7 23:03:47 10° NNW 23:09:27 74° WSW 23:10:09 65° SSW
CARTOSAT-1 4.3 23:10:33 44° NNE 23:10:33 44° NNE 23:13:48 10° N
Cosmos 1709 Rocket 4.4 23:10:41 43° ENE 23:10:41 43° ENE 23:16:06 10° NNE
SPOT 1/Viking Rocket 3.6 23:10:41 65° SSW 23:11:15 71° WSW 23:16:30 10° NNW
Abrixas rocket 4.5 23:08:22 10° WNW 23:09:53 24° WNW 23:09:53 24° WNW
Cosmos 1818 3.5 23:10:06 38° SW 23:12:15 81° NW 23:17:44 10° NNE
Terra 2.1 23:16:55 58° NNE 23:16:55 58° NNE 23:20:59 10° N
Cosmos 1975 4.1 23:16:24 35° W 23:16:39 35° WNW 23:20:21 10° N
Nimbus 7 Rocket 4.3 23:12:44 10° NNE 23:18:38 86° WNW 23:19:44 61° SSW
Cosmos 1602 Rocket 4.3 23:16:41 10° N 23:19:50 47° N 23:19:50 47° N
H-2A R/B 3.5 23:23:50 30° NNE 23:23:50 30° NNE 23:26:34 10° N
BREEZE-M DEB 3.8 23:17:44 10° WNW 23:22:33 47° NW 23:22:33 47° NW
Cosmos 1503 Rocket 4.0 23:18:14 10° NNW 23:23:33 79° W 23:23:33 79° W
NOSS 3-2 (A) 4.0 23:16:17 10° NW 23:23:50 81° WSW 23:25:38 58° SSE
Cosmos 2219 Rocket 2.1 23:24:26 89° NE 23:24:26 89° NE 23:30:07 10° NNE
USA 238 DEB 4.4 23:19:06 10° NW 23:25:44 44° WSW 23:27:24 38° SSW
USA 238 4.4 23:19:11 10° NW 23:25:50 44° WSW 23:27:30 38° SSW
Cosmos 724 4.1 23:20:51 10° NW 23:26:45 79° WSW 23:26:49 79° SW
Meteor 2-9 Rocket 4.4 23:27:37 59° NE 23:27:37 59° NE 23:32:28 10° NNE
SL-16 R/B 4.3 23:39:45 15° ENE 23:39:45 15° ENE 23:40:58 10° NE
ATLAS 3B R/B 3.9 23:34:30 10° NW 23:39:59 28° WSW 23:41:11 26° SW
Cosmos 2360 Rocket 4.5 23:35:55 10° W 23:40:13 22° NW 23:44:33 10° N
COSMOS 2428 3.8 23:37:40 17° WSW 23:41:46 43° WNW 23:47:13 10° NNE
Cosmos 1844 4.4 23:42:32 10° NW 23:47:46 46° W 23:47:46 46° W
H-2A R/B 3.4 23:49:01 29° W 23:49:14 29° W 23:53:32 10° NW
NOSS 0 Rocket 3.9 23:51:55 80° N 23:51:55 80° N 23:57:51 10° NNE
ATLAS CENTAUR R/B 3.9 23:52:15 10° N 23:53:18 15° N 23:53:18 15° N
